Year,Month,Day,Hour,Minute,Value (Times are PST for windspeed in km/hr)
2014,04,26,00,00,3.60
2014,04,26,00,01,2.00
2014,04,26,00,02,2.70
2014,04,26,00,03,2.70
2014,04,26,00,04,2.40
2014,04,26,00,05,2.40
2014,04,26,00,06,1.90
2014,04,26,00,07,2.20
2014,04,26,00,08,2.20
2014,04,26,00,09,3.00
2014,04,26,00,10,2.70
2014,04,26,00,11,2.60
2014,04,26,00,12,3.50
2014,04,26,00,13,4.30
2014,04,26,00,14,4.40
2014,04,26,00,15,2.10
2014,04,26,00,16,3.60
2014,04,26,00,17,2.50
2014,04,26,00,18,3.30
2014,04,26,00,19,3.50
2014,04,26,00,20,4.80
2014,04,26,00,21,5.30
2014,04,26,00,22,3.80
2014,04,26,00,23,2.30
2014,04,26,00,24,3.20
2014,04,26,00,25,3.60
2014,04,26,00,26,2.90
2014,04,26,00,27,2.90
2014,04,26,00,28,2.70
2014,04,26,00,29,4.10
2014,04,26,00,30,4.00
2014,04,26,00,31,3.50
2014,04,26,00,32,2.80
2014,04,26,00,33,2.30
2014,04,26,00,34,2.30
2014,04,26,00,35,3.10
2014,04,26,00,36,2.50
2014,04,26,00,37,3.50
2014,04,26,00,38,4.30
2014,04,26,00,39,3.60
2014,04,26,00,40,1.90
2014,04,26,00,41,1.50
2014,04,26,00,42,1.70
2014,04,26,00,43,2.10
2014,04,26,00,44,1.30
2014,04,26,00,45,0.50
2014,04,26,00,46,0.00
2014,04,26,00,47,1.80
2014,04,26,00,48,2.70
2014,04,26,00,49,2.20
2014,04,26,00,50,2.40
2014,04,26,00,51,2.50
2014,04,26,00,52,2.50
2014,04,26,00,53,2.10
2014,04,26,00,54,1.80
2014,04,26,00,55,1.90
2014,04,26,00,56,2.00
2014,04,26,00,57,1.80
2014,04,26,00,58,1.80
2014,04,26,00,59,1.20
2014,04,26,01,00,1.40
2014,04,26,01,01,2.30
2014,04,26,01,02,2.70
2014,04,26,01,03,2.60
2014,04,26,01,04,2.60
2014,04,26,01,05,3.30
2014,04,26,01,06,1.30
2014,04,26,01,07,0.60
2014,04,26,01,08,1.20
2014,04,26,01,09,1.70
2014,04,26,01,10,1.30
2014,04,26,01,11,3.20
2014,04,26,01,12,2.90
2014,04,26,01,13,2.20
2014,04,26,01,14,1.40
2014,04,26,01,15,2.00
2014,04,26,01,16,2.30
2014,04,26,01,17,2.00
2014,04,26,01,18,2.80
2014,04,26,01,19,3.30
2014,04,26,01,20,2.20
2014,04,26,01,21,1.80
2014,04,26,01,22,0.90
2014,04,26,01,23,0.70
2014,04,26,01,24,0.60
2014,04,26,01,25,1.40
2014,04,26,01,26,1.30
2014,04,26,01,27,1.80
2014,04,26,01,28,2.30
2014,04,26,01,29,2.40
2014,04,26,01,30,2.80
2014,04,26,01,31,3.70
2014,04,26,01,32,3.70
2014,04,26,01,33,3.20
2014,04,26,01,34,4.00
2014,04,26,01,35,3.40
2014,04,26,01,36,1.70
2014,04,26,01,37,1.70
2014,04,26,01,38,2.20
2014,04,26,01,39,2.00
2014,04,26,01,40,2.90
2014,04,26,01,41,2.30
2014,04,26,01,42,2.40
2014,04,26,01,43,2.50
2014,04,26,01,44,2.40
2014,04,26,01,45,5.70
2014,04,26,01,46,4.40
2014,04,26,01,47,2.80
2014,04,26,01,48,3.40
2014,04,26,01,49,1.40
2014,04,26,01,50,3.20
2014,04,26,01,51,3.30
2014,04,26,01,52,2.80
2014,04,26,01,53,2.60
2014,04,26,01,54,2.20
2014,04,26,01,55,1.80
2014,04,26,01,56,1.70
2014,04,26,01,57,1.90
2014,04,26,01,58,2.10
2014,04,26,01,59,2.40
2014,04,26,02,00,2.10
2014,04,26,02,01,2.90
2014,04,26,02,02,2.40
2014,04,26,02,03,3.10
2014,04,26,02,04,2.40
2014,04,26,02,05,2.60
2014,04,26,02,06,3.00
2014,04,26,02,07,2.90
2014,04,26,02,08,1.70
2014,04,26,02,09,3.00
2014,04,26,02,10,2.50
2014,04,26,02,11,2.30
2014,04,26,02,12,1.30
2014,04,26,02,13,0.30
2014,04,26,02,14,2.20
2014,04,26,02,15,2.60
2014,04,26,02,16,2.80
2014,04,26,02,17,3.20
2014,04,26,02,18,2.70
2014,04,26,02,19,2.90
2014,04,26,02,20,2.10
2014,04,26,02,21,2.20
2014,04,26,02,22,2.30
2014,04,26,02,23,2.70
2014,04,26,02,24,2.60
2014,04,26,02,25,2.70
2014,04,26,02,26,1.70
2014,04,26,02,27,2.40
2014,04,26,02,28,4.30
2014,04,26,02,29,2.80
2014,04,26,02,30,2.50
2014,04,26,02,31,1.70
2014,04,26,02,32,2.00
2014,04,26,02,33,2.80
2014,04,26,02,34,2.90
2014,04,26,02,35,3.20
2014,04,26,02,36,2.90
2014,04,26,02,37,2.50
2014,04,26,02,38,2.80
2014,04,26,02,39,2.50
2014,04,26,02,40,2.10
2014,04,26,02,41,1.70
2014,04,26,02,42,2.70
2014,04,26,02,43,3.60
2014,04,26,02,44,3.90
2014,04,26,02,45,2.50
2014,04,26,02,46,2.60
2014,04,26,02,47,4.00
2014,04,26,02,48,3.30
2014,04,26,02,49,3.10
2014,04,26,02,50,1.70
2014,04,26,02,51,1.30
2014,04,26,02,52,0.70
2014,04,26,02,53,1.00
2014,04,26,02,54,2.80
2014,04,26,02,55,2.40
2014,04,26,02,56,2.20
2014,04,26,02,57,2.50
2014,04,26,02,58,2.80
2014,04,26,02,59,3.60
2014,04,26,03,00,2.50
2014,04,26,03,01,2.40
2014,04,26,03,02,2.90
2014,04,26,03,03,4.00
2014,04,26,03,04,3.20
2014,04,26,03,05,2.40
2014,04,26,03,06,2.90
2014,04,26,03,07,2.70
2014,04,26,03,08,3.80
2014,04,26,03,09,4.10
2014,04,26,03,10,3.50
2014,04,26,03,11,4.10
2014,04,26,03,12,4.50
2014,04,26,03,13,4.20
2014,04,26,03,14,4.70
2014,04,26,03,15,4.90
2014,04,26,03,16,6.80
2014,04,26,03,17,4.00
2014,04,26,03,18,1.40
2014,04,26,03,19,3.00
2014,04,26,03,20,1.60
2014,04,26,03,21,1.10
2014,04,26,03,22,1.00
2014,04,26,03,23,0.50
2014,04,26,03,24,0.40
2014,04,26,03,25,1.40
2014,04,26,03,26,2.20
2014,04,26,03,27,2.50
2014,04,26,03,28,2.80
2014,04,26,03,29,2.90
2014,04,26,03,30,3.10
2014,04,26,03,31,3.10
2014,04,26,03,32,0.90
2014,04,26,03,33,0.20
2014,04,26,03,34,0.00
2014,04,26,03,35,0.40
2014,04,26,03,36,0.20
2014,04,26,03,37,1.90
2014,04,26,03,38,0.60
2014,04,26,03,39,0.10
2014,04,26,03,40,0.70
2014,04,26,03,41,1.70
2014,04,26,03,42,1.40
2014,04,26,03,43,1.70
2014,04,26,03,44,2.30
2014,04,26,03,45,2.10
2014,04,26,03,46,0.20
2014,04,26,03,47,2.30
2014,04,26,03,48,2.70
2014,04,26,03,49,2.60
2014,04,26,03,50,3.20
2014,04,26,03,51,4.30
2014,04,26,03,52,4.70
2014,04,26,03,53,4.30
2014,04,26,03,54,2.30
2014,04,26,03,55,1.70
2014,04,26,03,56,3.10
2014,04,26,03,57,2.90
2014,04,26,03,58,0.60
2014,04,26,03,59,0.80
2014,04,26,04,00,2.10
2014,04,26,04,01,1.70
2014,04,26,04,02,0.00
2014,04,26,04,03,0.00
2014,04,26,04,04,0.20
2014,04,26,04,05,1.70
2014,04,26,04,06,1.80
2014,04,26,04,07,3.00
2014,04,26,04,08,1.50
2014,04,26,04,09,1.50
2014,04,26,04,10,2.30
2014,04,26,04,11,1.70
2014,04,26,04,12,2.40
2014,04,26,04,13,2.40
2014,04,26,04,14,1.90
2014,04,26,04,15,1.30
2014,04,26,04,16,1.50
2014,04,26,04,17,2.40
2014,04,26,04,18,2.70
2014,04,26,04,19,1.90
2014,04,26,04,20,1.70
2014,04,26,04,21,1.30
2014,04,26,04,22,2.50
2014,04,26,04,23,2.10
2014,04,26,04,24,0.30
2014,04,26,04,25,0.00
2014,04,26,04,26,1.40
2014,04,26,04,27,0.30
2014,04,26,04,28,0.00
2014,04,26,04,29,1.10
2014,04,26,04,30,2.50
2014,04,26,04,31,2.30
2014,04,26,04,32,0.90
2014,04,26,04,33,0.50
2014,04,26,04,34,0.70
2014,04,26,04,35,1.40
2014,04,26,04,36,1.40
2014,04,26,04,37,1.60
2014,04,26,04,38,0.10
2014,04,26,04,39,0.00
2014,04,26,04,40,0.20
2014,04,26,04,41,1.20
2014,04,26,04,42,2.60
2014,04,26,04,43,0.40
2014,04,26,04,44,1.60
2014,04,26,04,45,2.40
2014,04,26,04,46,1.70
2014,04,26,04,47,2.60
2014,04,26,04,48,3.50
2014,04,26,04,49,3.80
2014,04,26,04,50,4.80
2014,04,26,04,51,4.90
2014,04,26,04,52,3.30
2014,04,26,04,53,2.60
2014,04,26,04,54,3.00
2014,04,26,04,55,2.20
2014,04,26,04,56,2.70
2014,04,26,04,57,2.00
2014,04,26,04,58,0.60
2014,04,26,04,59,0.50
2014,04,26,05,00,0.90
2014,04,26,05,01,0.50
2014,04,26,05,02,0.40
2014,04,26,05,03,1.70
2014,04,26,05,04,2.20
2014,04,26,05,05,3.90
2014,04,26,05,06,5.30
2014,04,26,05,07,3.60
2014,04,26,05,08,1.70
2014,04,26,05,09,2.90
2014,04,26,05,10,2.50
2014,04,26,05,11,3.00
2014,04,26,05,12,2.90
2014,04,26,05,13,4.10
2014,04,26,05,14,4.10
2014,04,26,05,15,3.60
2014,04,26,05,16,2.70
2014,04,26,05,17,1.90
2014,04,26,05,18,2.50
2014,04,26,05,19,1.70
2014,04,26,05,20,1.60
2014,04,26,05,21,2.20
2014,04,26,05,22,2.40
2014,04,26,05,23,1.70
2014,04,26,05,24,1.60
2014,04,26,05,25,2.20
2014,04,26,05,26,2.00
2014,04,26,05,27,1.60
2014,04,26,05,28,1.90
2014,04,26,05,29,2.30
2014,04,26,05,30,1.40
2014,04,26,05,31,0.90
2014,04,26,05,32,1.80
2014,04,26,05,33,1.80
2014,04,26,05,34,1.50
2014,04,26,05,35,2.50
2014,04,26,05,36,2.40
2014,04,26,05,37,0.10
2014,04,26,05,38,1.70
2014,04,26,05,39,1.20
2014,04,26,05,40,0.50
2014,04,26,05,41,0.20
2014,04,26,05,42,1.20
2014,04,26,05,43,0.80
2014,04,26,05,44,2.90
2014,04,26,05,45,1.10
2014,04,26,05,46,3.20
2014,04,26,05,47,2.30
2014,04,26,05,48,0.40
2014,04,26,05,49,0.00
2014,04,26,05,50,0.10
2014,04,26,05,51,0.60
2014,04,26,05,52,0.60
2014,04,26,05,53,2.30
2014,04,26,05,54,1.40
2014,04,26,05,55,0.20
2014,04,26,05,56,0.10
2014,04,26,05,57,0.30
2014,04,26,05,58,0.80
2014,04,26,05,59,0.60
2014,04,26,06,00,0.00
2014,04,26,06,01,0.00
2014,04,26,06,02,0.60
2014,04,26,06,03,1.10
2014,04,26,06,04,1.60
2014,04,26,06,05,1.40
2014,04,26,06,06,1.00
2014,04,26,06,07,0.20
2014,04,26,06,08,1.40
2014,04,26,06,09,2.00
2014,04,26,06,10,1.50
2014,04,26,06,11,0.40
2014,04,26,06,12,0.00
2014,04,26,06,13,0.00
2014,04,26,06,14,0.00
2014,04,26,06,15,0.00
2014,04,26,06,16,0.40
2014,04,26,06,17,0.00
2014,04,26,06,18,0.00
2014,04,26,06,19,0.00
2014,04,26,06,20,0.00
2014,04,26,06,21,0.50
2014,04,26,06,22,0.40
2014,04,26,06,23,0.00
2014,04,26,06,24,0.00
2014,04,26,06,25,0.00
2014,04,26,06,26,0.10
2014,04,26,06,27,0.20
2014,04,26,06,28,0.70
2014,04,26,06,29,1.90
2014,04,26,06,30,1.30
2014,04,26,06,31,1.80
2014,04,26,06,32,2.20
2014,04,26,06,33,2.00
2014,04,26,06,34,1.10
2014,04,26,06,35,3.10
2014,04,26,06,36,2.80
2014,04,26,06,37,1.60
2014,04,26,06,38,1.90
2014,04,26,06,39,0.80
2014,04,26,06,40,0.10
2014,04,26,06,41,0.00
2014,04,26,06,42,0.00
2014,04,26,06,43,0.10
2014,04,26,06,44,0.20
2014,04,26,06,45,0.30
2014,04,26,06,46,0.20
2014,04,26,06,47,0.50
2014,04,26,06,48,1.80
2014,04,26,06,49,0.60
2014,04,26,06,50,0.00
2014,04,26,06,51,0.00
2014,04,26,06,52,0.00
2014,04,26,06,53,0.50
2014,04,26,06,54,0.40
2014,04,26,06,55,0.00
2014,04,26,06,56,0.00
2014,04,26,06,57,0.70
2014,04,26,06,58,1.80
2014,04,26,06,59,1.80
2014,04,26,07,00,1.40
2014,04,26,07,01,0.70
2014,04,26,07,02,0.00
2014,04,26,07,03,0.00
2014,04,26,07,04,0.00
2014,04,26,07,05,0.30
2014,04,26,07,06,0.80
2014,04,26,07,07,0.20
2014,04,26,07,08,1.20
2014,04,26,07,09,1.10
2014,04,26,07,10,2.20
2014,04,26,07,11,2.80
2014,04,26,07,12,2.30
2014,04,26,07,13,2.20
2014,04,26,07,14,2.70
2014,04,26,07,15,2.70
2014,04,26,07,16,4.10
2014,04,26,07,17,4.00
2014,04,26,07,18,3.10
2014,04,26,07,19,2.30
2014,04,26,07,20,2.80
2014,04,26,07,21,2.90
2014,04,26,07,22,7.10
2014,04,26,07,23,5.90
2014,04,26,07,24,4.00
2014,04,26,07,25,1.40
2014,04,26,07,26,3.30
2014,04,26,07,27,2.30
2014,04,26,07,28,4.10
2014,04,26,07,29,5.10
2014,04,26,07,30,2.70
2014,04,26,07,31,0.80
2014,04,26,07,32,2.70
2014,04,26,07,33,2.60
2014,04,26,07,34,2.50
2014,04,26,07,35,2.80
2014,04,26,07,36,3.30
2014,04,26,07,37,1.70
2014,04,26,07,38,2.60
2014,04,26,07,39,1.80
2014,04,26,07,40,1.60
2014,04,26,07,41,2.40
2014,04,26,07,42,1.70
2014,04,26,07,43,0.60
2014,04,26,07,44,0.20
2014,04,26,07,45,0.20
2014,04,26,07,46,0.40
2014,04,26,07,47,1.70
2014,04,26,07,48,1.80
2014,04,26,07,49,0.60
2014,04,26,07,50,1.30
2014,04,26,07,51,1.20
2014,04,26,07,52,0.30
2014,04,26,07,53,0.50
2014,04,26,07,54,0.90
2014,04,26,07,55,0.90
2014,04,26,07,56,3.30
2014,04,26,07,57,2.70
2014,04,26,07,58,1.80
2014,04,26,07,59,3.30
2014,04,26,08,00,4.20
2014,04,26,08,01,4.40
2014,04,26,08,02,2.20
2014,04,26,08,03,2.90
2014,04,26,08,04,3.30
2014,04,26,08,05,2.10
2014,04,26,08,06,2.80
2014,04,26,08,07,2.20
2014,04,26,08,08,0.40
2014,04,26,08,09,0.00
2014,04,26,08,10,0.90
2014,04,26,08,11,1.30
2014,04,26,08,12,3.70
2014,04,26,08,13,3.30
2014,04,26,08,14,1.20
2014,04,26,08,15,0.80
2014,04,26,08,16,1.00
2014,04,26,08,17,2.10
2014,04,26,08,18,0.80
2014,04,26,08,19,1.80
2014,04,26,08,20,2.90
2014,04,26,08,21,2.10
2014,04,26,08,22,0.90
2014,04,26,08,23,1.20
2014,04,26,08,24,1.60
2014,04,26,08,25,2.60
2014,04,26,08,26,2.60
2014,04,26,08,27,3.70
2014,04,26,08,28,3.80
2014,04,26,08,29,2.90
2014,04,26,08,30,2.20
2014,04,26,08,31,1.20
2014,04,26,08,32,0.70
2014,04,26,08,33,1.50
2014,04,26,08,34,1.70
2014,04,26,08,35,1.20
2014,04,26,08,36,3.90
2014,04,26,08,37,3.30
2014,04,26,08,38,3.20
2014,04,26,08,39,3.00
2014,04,26,08,40,2.40
2014,04,26,08,41,3.70
2014,04,26,08,42,2.60
2014,04,26,08,43,2.20
2014,04,26,08,44,3.40
2014,04,26,08,45,3.00
2014,04,26,08,46,2.00
2014,04,26,08,47,4.20
2014,04,26,08,48,4.60
2014,04,26,08,49,4.10
2014,04,26,08,50,3.90
2014,04,26,08,51,4.70
2014,04,26,08,52,5.20
2014,04,26,08,53,4.30
2014,04,26,08,54,4.70
2014,04,26,08,55,4.20
2014,04,26,08,56,6.00
2014,04,26,08,57,5.10
2014,04,26,08,58,3.10
2014,04,26,08,59,3.90
2014,04,26,09,00,4.00
2014,04,26,09,01,4.50
2014,04,26,09,02,3.80
2014,04,26,09,03,4.10
2014,04,26,09,04,4.40
2014,04,26,09,05,1.70
2014,04,26,09,06,4.10
2014,04,26,09,07,5.20
2014,04,26,09,08,3.20
2014,04,26,09,09,4.00
2014,04,26,09,10,2.20
2014,04,26,09,11,3.90
2014,04,26,09,12,5.30
2014,04,26,09,13,5.60
2014,04,26,09,14,3.60
2014,04,26,09,15,7.30
2014,04,26,09,16,3.70
2014,04,26,09,17,5.30
2014,04,26,09,18,3.40
2014,04,26,09,19,3.10
2014,04,26,09,20,6.00
2014,04,26,09,21,4.80
2014,04,26,09,22,4.60
2014,04,26,09,23,4.60
2014,04,26,09,24,9.50
2014,04,26,09,25,6.60
2014,04,26,09,26,7.90
2014,04,26,09,27,5.50
2014,04,26,09,28,7.00
2014,04,26,09,29,6.40
2014,04,26,09,30,7.00
2014,04,26,09,31,3.60
2014,04,26,09,32,4.70
2014,04,26,09,33,7.10
2014,04,26,09,34,7.60
2014,04,26,09,35,5.40
2014,04,26,09,36,7.60
2014,04,26,09,37,5.80
2014,04,26,09,38,7.20
2014,04,26,09,39,4.90
2014,04,26,09,40,6.60
2014,04,26,09,41,7.60
2014,04,26,09,42,6.80
2014,04,26,09,43,8.70
2014,04,26,09,44,3.50
2014,04,26,09,45,4.80
2014,04,26,09,46,4.10
2014,04,26,09,47,7.90
2014,04,26,09,48,9.30
2014,04,26,09,49,11.60
2014,04,26,09,50,8.20
2014,04,26,09,51,10.10
2014,04,26,09,52,9.90
2014,04,26,09,53,9.40
2014,04,26,09,54,7.90
2014,04,26,09,55,11.00
2014,04,26,09,56,13.30
2014,04,26,09,57,7.70
2014,04,26,09,58,9.40
2014,04,26,09,59,7.80
2014,04,26,10,00,10.30
2014,04,26,10,01,10.80
2014,04,26,10,02,7.80
2014,04,26,10,03,6.20
2014,04,26,10,04,7.50
2014,04,26,10,05,14.20
2014,04,26,10,06,10.50
2014,04,26,10,07,12.40
2014,04,26,10,08,7.00
2014,04,26,10,09,6.90
2014,04,26,10,10,6.80
2014,04,26,10,11,12.50
2014,04,26,10,12,11.60
2014,04,26,10,13,10.10
2014,04,26,10,14,3.60
2014,04,26,10,15,3.80
2014,04,26,10,16,9.30
2014,04,26,10,17,8.00
2014,04,26,10,18,5.00
2014,04,26,10,19,7.30
2014,04,26,10,20,10.20
2014,04,26,10,21,8.30
2014,04,26,10,22,12.70
2014,04,26,10,23,6.30
2014,04,26,10,24,7.50
2014,04,26,10,25,7.20
2014,04,26,10,26,7.40
2014,04,26,10,27,9.60
2014,04,26,10,28,9.30
2014,04,26,10,29,5.20
2014,04,26,10,30,9.80
2014,04,26,10,31,6.80
2014,04,26,10,32,8.50
2014,04,26,10,33,6.70
2014,04,26,10,34,4.20
2014,04,26,10,35,6.70
2014,04,26,10,36,5.10
2014,04,26,10,37,12.90
2014,04,26,10,38,12.10
2014,04,26,10,39,13.20
2014,04,26,10,40,8.90
2014,04,26,10,41,9.20
2014,04,26,10,42,10.50
2014,04,26,10,43,8.90
2014,04,26,10,44,12.70
2014,04,26,10,45,11.40
2014,04,26,10,46,13.80
2014,04,26,10,47,10.20
2014,04,26,10,48,12.70
2014,04,26,10,49,12.20
2014,04,26,10,50,9.50
2014,04,26,10,51,11.70
2014,04,26,10,52,7.80
2014,04,26,10,53,12.50
2014,04,26,10,54,3.70
2014,04,26,10,55,14.70
2014,04,26,10,56,11.90
2014,04,26,10,57,12.60
2014,04,26,10,58,8.00
2014,04,26,10,59,6.30
2014,04,26,11,00,10.50
2014,04,26,11,01,17.60
2014,04,26,11,02,15.50
2014,04,26,11,03,9.10
2014,04,26,11,04,12.30
2014,04,26,11,05,13.90
2014,04,26,11,06,11.40
2014,04,26,11,07,8.30
2014,04,26,11,08,7.90
2014,04,26,11,09,13.80
2014,04,26,11,10,14.70
2014,04,26,11,11,17.00
2014,04,26,11,12,8.50
2014,04,26,11,13,6.60
2014,04,26,11,14,12.30
2014,04,26,11,15,11.90
2014,04,26,11,16,7.00
2014,04,26,11,17,6.80
2014,04,26,11,18,12.30
2014,04,26,11,19,9.90
2014,04,26,11,20,9.00
2014,04,26,11,21,13.40
2014,04,26,11,22,17.20
2014,04,26,11,23,14.90
2014,04,26,11,24,13.40
2014,04,26,11,25,12.80
2014,04,26,11,26,7.40
2014,04,26,11,27,10.20
2014,04,26,11,28,13.60
2014,04,26,11,29,9.50
2014,04,26,11,30,7.80
2014,04,26,11,31,11.50
2014,04,26,11,32,12.40
2014,04,26,11,33,13.20
2014,04,26,11,34,10.60
2014,04,26,11,35,11.00
2014,04,26,11,36,6.30
2014,04,26,11,37,8.20
2014,04,26,11,38,7.10
2014,04,26,11,39,14.80
2014,04,26,11,40,12.90
2014,04,26,11,41,7.90
2014,04,26,11,42,11.00
2014,04,26,11,43,11.20
2014,04,26,11,44,18.80
2014,04,26,11,45,12.60
2014,04,26,11,46,16.60
2014,04,26,11,47,17.10
2014,04,26,11,48,17.10
2014,04,26,11,49,19.70
2014,04,26,11,50,16.80
2014,04,26,11,51,12.80
2014,04,26,11,52,18.90
2014,04,26,11,53,16.20
2014,04,26,11,54,17.20
2014,04,26,11,55,16.20
2014,04,26,11,56,12.50
2014,04,26,11,57,8.70
2014,04,26,11,58,14.70
2014,04,26,11,59,14.80
2014,04,26,12,00,13.00
2014,04,26,12,01,7.50
2014,04,26,12,02,6.00
2014,04,26,12,03,10.20
2014,04,26,12,04,9.10
2014,04,26,12,05,10.40
2014,04,26,12,06,11.10
2014,04,26,12,07,7.90
2014,04,26,12,08,10.70
2014,04,26,12,09,9.80
2014,04,26,12,10,7.30
2014,04,26,12,11,4.00
2014,04,26,12,12,9.10
2014,04,26,12,13,3.90
2014,04,26,12,14,5.30
2014,04,26,12,15,4.00
2014,04,26,12,16,1.10
2014,04,26,12,17,0.70
2014,04,26,12,18,3.20
2014,04,26,12,19,1.40
2014,04,26,12,20,3.90
2014,04,26,12,21,5.20
2014,04,26,12,22,5.10
2014,04,26,12,23,9.70
2014,04,26,12,24,11.10
2014,04,26,12,25,8.20
2014,04,26,12,26,6.60
2014,04,26,12,27,8.10
2014,04,26,12,28,11.50
2014,04,26,12,29,13.70
2014,04,26,12,30,9.00
2014,04,26,12,31,11.40
2014,04,26,12,32,12.10
2014,04,26,12,33,14.10
2014,04,26,12,34,16.70
2014,04,26,12,35,14.70
2014,04,26,12,36,13.10
2014,04,26,12,37,11.30
2014,04,26,12,38,7.70
2014,04,26,12,39,7.50
2014,04,26,12,40,8.10
2014,04,26,12,41,8.70
2014,04,26,12,42,12.50
2014,04,26,12,43,13.60
2014,04,26,12,44,14.70
2014,04,26,12,45,10.90
2014,04,26,12,46,8.00
2014,04,26,12,47,10.20
2014,04,26,12,48,25.20
2014,04,26,12,49,21.30
2014,04,26,12,50,18.40
2014,04,26,12,51,10.40
2014,04,26,12,52,13.00
2014,04,26,12,53,11.40
2014,04,26,12,54,17.70
2014,04,26,12,55,19.50
2014,04,26,12,56,11.90
2014,04,26,12,57,19.70
2014,04,26,12,58,7.60
2014,04,26,12,59,14.30
2014,04,26,13,00,15.90
2014,04,26,13,01,16.20
2014,04,26,13,02,18.20
2014,04,26,13,03,11.20
2014,04,26,13,04,11.30
2014,04,26,13,05,12.20
2014,04,26,13,06,16.70
2014,04,26,13,07,17.90
2014,04,26,13,08,14.60
2014,04,26,13,09,18.10
2014,04,26,13,10,13.50
2014,04,26,13,11,16.70
2014,04,26,13,12,21.90
2014,04,26,13,13,24.40
2014,04,26,13,14,20.90
2014,04,26,13,15,19.40
2014,04,26,13,16,17.20
2014,04,26,13,17,16.00
2014,04,26,13,18,19.10
2014,04,26,13,19,19.90
2014,04,26,13,20,9.30
2014,04,26,13,21,16.10
2014,04,26,13,22,14.30
2014,04,26,13,23,14.20
2014,04,26,13,24,15.00
2014,04,26,13,25,13.70
2014,04,26,13,26,15.50
2014,04,26,13,27,17.20
2014,04,26,13,28,17.40
2014,04,26,13,29,16.00
2014,04,26,13,30,15.10
2014,04,26,13,31,15.30
2014,04,26,13,32,16.00
2014,04,26,13,33,25.10
2014,04,26,13,34,10.90
2014,04,26,13,35,8.90
2014,04,26,13,36,18.30
2014,04,26,13,37,17.50
2014,04,26,13,38,19.40
2014,04,26,13,39,22.00
2014,04,26,13,40,20.70
2014,04,26,13,41,14.10
2014,04,26,13,42,16.30
2014,04,26,13,43,14.80
2014,04,26,13,44,11.20
2014,04,26,13,45,16.00
2014,04,26,13,46,15.40
2014,04,26,13,47,23.00
2014,04,26,13,48,19.80
2014,04,26,13,49,22.00
2014,04,26,13,50,20.30
2014,04,26,13,51,16.60
2014,04,26,13,52,17.30
2014,04,26,13,53,14.40
2014,04,26,13,54,11.40
2014,04,26,13,55,15.10
2014,04,26,13,56,19.20
2014,04,26,13,57,17.40
2014,04,26,13,58,17.50
2014,04,26,13,59,18.60
2014,04,26,14,00,18.20
2014,04,26,14,01,19.70
2014,04,26,14,02,16.30
2014,04,26,14,03,17.80
2014,04,26,14,04,19.40
2014,04,26,14,05,15.80
2014,04,26,14,06,17.40
2014,04,26,14,07,16.10
2014,04,26,14,08,17.70
2014,04,26,14,09,27.60
2014,04,26,14,10,17.40
2014,04,26,14,11,22.60
2014,04,26,14,12,17.10
2014,04,26,14,13,19.50
2014,04,26,14,14,19.70
2014,04,26,14,15,22.10
2014,04,26,14,16,22.60
2014,04,26,14,17,24.00
2014,04,26,14,18,20.50
2014,04,26,14,19,20.40
2014,04,26,14,20,21.80
2014,04,26,14,21,20.20
2014,04,26,14,22,12.00
2014,04,26,14,23,17.80
2014,04,26,14,24,20.70
2014,04,26,14,25,14.70
2014,04,26,14,26,20.40
2014,04,26,14,27,17.10
2014,04,26,14,28,14.80
2014,04,26,14,29,14.60
2014,04,26,14,30,15.20
2014,04,26,14,31,23.10
2014,04,26,14,32,16.30
2014,04,26,14,33,17.40
2014,04,26,14,34,12.70
2014,04,26,14,35,9.60
2014,04,26,14,36,11.00
2014,04,26,14,37,8.20
2014,04,26,14,38,16.60
2014,04,26,14,39,15.40
2014,04,26,14,40,11.20
2014,04,26,14,41,15.60
2014,04,26,14,42,10.70
2014,04,26,14,43,10.60
2014,04,26,14,44,14.00
2014,04,26,14,45,9.70
2014,04,26,14,46,8.80
2014,04,26,14,47,7.90
2014,04,26,14,48,12.30
2014,04,26,14,49,7.50
2014,04,26,14,50,9.40
2014,04,26,14,51,8.90
2014,04,26,14,52,10.00
2014,04,26,14,53,7.20
2014,04,26,14,54,12.10
2014,04,26,14,55,7.70
2014,04,26,14,56,10.30
2014,04,26,14,57,4.60
2014,04,26,14,58,8.20
2014,04,26,14,59,5.40
2014,04,26,15,00,8.90
2014,04,26,15,01,12.40
2014,04,26,15,02,11.40
2014,04,26,15,03,20.20
2014,04,26,15,04,19.30
2014,04,26,15,05,15.10
2014,04,26,15,06,18.90
2014,04,26,15,07,13.70
2014,04,26,15,08,10.90
2014,04,26,15,09,7.70
2014,04,26,15,10,12.90
2014,04,26,15,11,11.30
2014,04,26,15,12,15.00
2014,04,26,15,13,13.50
2014,04,26,15,14,10.70
2014,04,26,15,15,11.60
2014,04,26,15,16,22.30
2014,04,26,15,17,19.80
2014,04,26,15,18,13.30
2014,04,26,15,19,14.70
2014,04,26,15,20,18.30
2014,04,26,15,21,12.90
2014,04,26,15,22,12.10
2014,04,26,15,23,17.30
2014,04,26,15,24,11.40
2014,04,26,15,25,11.80
2014,04,26,15,26,13.70
2014,04,26,15,27,14.70
2014,04,26,15,28,11.00
2014,04,26,15,29,19.40
2014,04,26,15,30,9.90
2014,04,26,15,31,16.30
2014,04,26,15,32,10.60
2014,04,26,15,33,12.40
2014,04,26,15,34,13.10
2014,04,26,15,35,13.70
2014,04,26,15,36,12.30
2014,04,26,15,37,10.30
2014,04,26,15,38,15.70
2014,04,26,15,39,11.40
2014,04,26,15,40,12.30
2014,04,26,15,41,20.50
2014,04,26,15,42,15.50
2014,04,26,15,43,20.00
2014,04,26,15,44,14.60
2014,04,26,15,45,18.30
2014,04,26,15,46,17.30
2014,04,26,15,47,14.10
2014,04,26,15,48,16.00
2014,04,26,15,49,14.80
2014,04,26,15,50,14.50
2014,04,26,15,51,17.60
2014,04,26,15,52,14.50
2014,04,26,15,53,12.90
2014,04,26,15,54,8.40
2014,04,26,15,55,12.50
2014,04,26,15,56,11.30
2014,04,26,15,57,15.60
2014,04,26,15,58,11.60
2014,04,26,15,59,15.60
2014,04,26,16,00,18.90
2014,04,26,16,01,18.00
2014,04,26,16,02,17.10
2014,04,26,16,03,20.20
2014,04,26,16,04,18.40
2014,04,26,16,05,15.20
2014,04,26,16,06,16.00
2014,04,26,16,07,14.40
2014,04,26,16,08,16.80
2014,04,26,16,09,20.10
2014,04,26,16,10,19.70
2014,04,26,16,11,23.20
2014,04,26,16,12,22.40
2014,04,26,16,13,14.30
2014,04,26,16,14,21.80
2014,04,26,16,15,17.80
2014,04,26,16,16,17.10
2014,04,26,16,17,17.60
2014,04,26,16,18,15.70
2014,04,26,16,19,11.00
2014,04,26,16,20,13.80
2014,04,26,16,21,18.40
2014,04,26,16,22,17.00
2014,04,26,16,23,18.40
2014,04,26,16,24,20.00
2014,04,26,16,25,13.40
2014,04,26,16,26,16.40
2014,04,26,16,27,17.30
2014,04,26,16,28,8.50
2014,04,26,16,29,12.30
2014,04,26,16,30,23.70
2014,04,26,16,31,13.50
2014,04,26,16,32,15.50
2014,04,26,16,33,14.90
2014,04,26,16,34,11.70
2014,04,26,16,35,19.10
2014,04,26,16,36,15.20
2014,04,26,16,37,21.10
2014,04,26,16,38,16.30
2014,04,26,16,39,18.80
2014,04,26,16,40,9.00
2014,04,26,16,41,13.80
2014,04,26,16,42,13.20
2014,04,26,16,43,12.90
2014,04,26,16,44,12.00
2014,04,26,16,45,13.30
2014,04,26,16,46,9.80
2014,04,26,16,47,13.10
2014,04,26,16,48,18.20
2014,04,26,16,49,22.00
2014,04,26,16,50,14.90
2014,04,26,16,51,12.70
2014,04,26,16,52,23.10
2014,04,26,16,53,16.90
2014,04,26,16,54,17.80
2014,04,26,16,55,15.60
2014,04,26,16,56,15.80
2014,04,26,16,57,18.30
2014,04,26,16,58,11.70
2014,04,26,16,59,15.20
2014,04,26,17,00,18.20
2014,04,26,17,01,19.90
2014,04,26,17,02,14.80
2014,04,26,17,03,17.60
2014,04,26,17,04,13.90
2014,04,26,17,05,14.70
2014,04,26,17,06,10.30
2014,04,26,17,07,7.70
2014,04,26,17,08,9.40
2014,04,26,17,09,12.90
2014,04,26,17,10,11.30
2014,04,26,17,11,10.00
2014,04,26,17,12,11.20
2014,04,26,17,13,9.00
2014,04,26,17,14,13.10
2014,04,26,17,15,8.20
2014,04,26,17,16,7.40
2014,04,26,17,17,11.40
2014,04,26,17,18,9.00
2014,04,26,17,19,11.50
2014,04,26,17,20,9.50
2014,04,26,17,21,8.00
2014,04,26,17,22,4.00
2014,04,26,17,23,7.90
2014,04,26,17,24,8.70
2014,04,26,17,25,7.30
2014,04,26,17,26,9.90
2014,04,26,17,27,8.10
2014,04,26,17,28,5.20
2014,04,26,17,29,7.30
2014,04,26,17,30,13.30
2014,04,26,17,31,7.30
2014,04,26,17,32,5.20
2014,04,26,17,33,7.20
2014,04,26,17,34,7.40
2014,04,26,17,35,9.00
2014,04,26,17,36,8.10
2014,04,26,17,37,5.50
2014,04,26,17,38,9.30
2014,04,26,17,39,10.10
2014,04,26,17,40,12.30
2014,04,26,17,41,13.10
2014,04,26,17,42,12.40
2014,04,26,17,43,10.00
2014,04,26,17,44,13.00
2014,04,26,17,45,15.70
2014,04,26,17,46,12.30
2014,04,26,17,47,11.70
2014,04,26,17,48,8.70
2014,04,26,17,49,9.50
2014,04,26,17,50,14.20